Regional Weather Roundup
Issued by NWS

Home | Current Version | Previous Version | Graphics & Text | Print | Product List | Glossary On
Versions: 1 2 3 4 5 6 7 8 9 10 11 12 13 14 15 16 17 18 19 20 21 22 23 24 25 26 27 28 29 30 31 32 33 34 35 36 37 38 39 40 41 42 43 44 45 46 47 48 49 50
000
ASUS43 KLOT 311003
RWRIL

ILLINOIS REGIONAL WEATHER ROUNDUP
NATIONAL WEATHER SERVICE CHICAGO/ROMEOVILLE IL
500 AM CDT TUE MAY 31 2016

NOTE: "FAIR" INDICATES FEW OR NO CLOUDS BELOW 12,000 FEET WITH NO
SIGNIFICANT WEATHER AND/OR OBSTRUCTIONS TO VISIBILITY.

* THESE STATIONS ARE NOT UNDER NWS QUALITY CONTROL. THEY ALSO MAY NOT
  REPORT WEATHER SUCH AS PRECIPITATION OR FOG.

ILZ001-002-007-009-015-016-024-311100-
NORTHWEST ILLINOIS

CITY           SKY/WX    TMP DP  RH WIND       PRES   REMARKS
MOLINE         CLOUDY    68  63  84 CALM      29.94S
STERLING*      PTCLDY    65  60  84 E8        29.97R
$$

ILZ003-004-008-010-011-017-018-311100-
NORTH CENTRAL ILLINOIS

CITY           SKY/WX    TMP DP  RH WIND       PRES   REMARKS
ROCKFORD       TSTM      64  59  83 NE9       30.01R
FREEPORT*      CLOUDY    65  59  80 SE13G20   29.98F
ROCHELLE*      CLOUDY    65  58  78 CALM      30.00S
DE KALB*       CLOUDY    64  57  77 SE5       30.00R
$$

ILZ005-006-012>014-019>023-311100-
NORTHEAST ILLINOIS

CITY           SKY/WX    TMP DP  RH WIND       PRES   REMARKS
CHICAGO-OHARE  PTCLDY    68  53  58 E7        29.98S
CHICAGO-MIDWAY MOCLDY    69  56  62 E3        29.98R
AURORA         CLOUDY    65  58  78 CALM      29.98S
LANSING*       PTCLDY    65  57  76 CALM      29.99R
WAUKEGAN       PTCLDY    59  55  87 CALM      29.99R
DUPAGE AIRPORT CLOUDY    65  54  67 E3        29.98S
WHEELING       PTCLDY    64  54  69 CALM      30.00R
NORTHERLY ISL    N/A     62  56  80 CALM        N/A
NORTHERLY ISL    N/A     62  56  80 CALM        N/A
$$

LMZ740>746-311100-
SOUTHERN LAKE MICHIGAN

STATION/POSITION SKY/WX   TEMP    WIND        PRES    VSBY  WAVE
                          AIR SEA DIR/SP/G                  HT/PER
                          (F)     (DEG/KT/KT) (MB)    (MI)  (FT/S)
SOUTHERN BUOY              59 56  110/  6/  6 1015.1          0
WILMETTE HARBOR            58 57   CALM  /  2   N/A           0
HARRISON CRIB              66     100/  9/  9   N/A
BURNHAM HARBOR             63     130/  1/  3   N/A
CALUMET HARBOR             64      80/  2/  3 1014.6F
BURNS HARBOR               69     110/  7/  9 1015.6F
MICHIGAN CITY              66      30/  5/  6   N/A
MICHIGAN CITY 6N           63 61   60/  4/  4   N/A           0
ST. JOSEPH                 66 65   60/  6/  8   N/A           0
$$

ILZ025>027-034>036-040-047-049-050-058-095>099-311100-
WEST-CENTRAL ILLINOIS

CITY           SKY/WX    TMP DP  RH WIND       PRES   REMARKS
QUINCY         PTCLDY    66  61  84 CALM      29.97R
MACOMB*          N/A     64  62  93 CALM      29.98F
PITTSFIELD*    CLOUDY    66  64  93 SE3       29.99R
$$

ILZ028>032-037-038-041>044-048-051>054-059>061-311100-
CENTRAL ILLINOIS

CITY           SKY/WX    TMP DP  RH WIND       PRES   REMARKS
BLOOMINGTON    CLOUDY    70  62  75 CALM      29.99R
DECATUR        MOCLDY    67  60  78 SW3       29.98S
PEORIA         CLOUDY    67  62  84 CALM      29.96S
LINCOLN*       CLOUDY    67  63  85 CALM      29.97S
SPRINGFIELD    MOCLDY    65  61  87 SW3       29.98R
TAYLORVILLE    NOT AVBL
$$

ILZ033-039-045-046-055>057-062-063-311100-
EAST-CENTRAL ILLINOIS

CITY           SKY/WX    TMP DP  RH WIND       PRES   REMARKS
CHAMPAIGN      CLOUDY    66  61  84 CALM      29.98R
MATTOON        PTCLDY    65  61  87 CALM      29.97S
$$

ILZ079-100>102-311100-
SOUTHWEST ILLINOIS

CITY           SKY/WX    TMP DP  RH WIND       PRES   REMARKS
ALTON          CLOUDY    65  62  90 CALM      29.98S
CAHOKIA*       CLOUDY    68  64  87 CALM      29.96F
SPARTA*        CLOUDY    68  64  85 NE3       29.98S
$$

ILZ064>066-069>071-074>076-080>082-084>086-088>090-092>094-311100-
SOUTH-CENTRAL ILLINOIS

CITY           SKY/WX    TMP DP  RH WIND       PRES   REMARKS
CARBONDALE     CLOUDY    67  65  93 CALM      29.96F
MT. VERNON     MOCLDY    64  61  88 CALM      29.97F
SALEM*         CLOUDY    69  65  85 CALM      29.97S
$$

ILZ067-068-072-073-078-083-087-091-311100-
SOUTHEAST ILLINOIS

CITY           SKY/WX    TMP DP  RH WIND       PRES   REMARKS
LAWRENCEVILLE  CLOUDY    65  63  93 CALM      29.98S
FLORA*         PTCLDY    68  66  93 CALM      29.97S
HARRISBURG*    CLOUDY    67  67  98 CALM      29.96F
ROBINSON*      MOCLDY    62  62 100 CALM      29.98S
CARMI*         PTCLDY    65  65  97 CALM      29.96S
$$

ABBREVIATIONS USED IN REMARKS
   TC - TEMPERATURE IN CELSIUS
  WCI - WIND CHILL INDEX
   HX - HEAT INDEX
  VSB - VISIBILITY
$$




USA.gov is the U.S. government's official web portal to all federal, state and local government web resources and services.